Location: ??
(35.5052°N, 139.7262°E)
Time: 21:38:01
(UTC+00:00)

CBERS 1 DEB - Visible Passes

Search period start: 21 January 2022 00:00
Search period end: 31 January 2022 00:00
Orbit: 738 x 813 km, 98.1° (Epoch: 21 January)

Date Brightness Start Highest point End Pass type
(mag) Time Alt. Az. Time Alt. Az. Time Alt. Az.
21 Jan ? 09:05:46 10° NNW 09:09:40 22° WNW 09:13:36 10° WSW visible
21 Jan ? 18:39:15 10° SE 18:40:01 14° SE 18:40:01 14° SE visible
21 Jan ? 20:19:30 10° SW 20:20:26 14° SW 20:20:26 14° SW visible
22 Jan ? 08:31:15 10° N 08:36:09 46° WNW 08:41:08 10° SW visible
22 Jan ? 19:44:26 10° S 19:46:15 22° SSW 19:46:15 22° SSW visible
23 Jan ? 09:39:46 10° NW 09:41:00 11° WNW 09:42:14 10° WNW visible
23 Jan ? 19:10:25 10° SSE 19:12:03 21° SSE 19:12:03 21° SSE visible
24 Jan ? 09:03:39 10° NNW 09:07:40 23° WNW 09:11:42 10° WSW visible
24 Jan ? 18:37:14 10° SE 18:37:52 13° SE 18:37:52 13° SE visible
24 Jan ? 20:17:21 10° SW 20:18:17 14° SW 20:18:17 14° SW visible
25 Jan ? 08:29:10 10° N 08:34:08 48° WNW 08:39:09 10° SW visible
25 Jan ? 19:42:21 10° S 19:44:06 21° SSW 19:44:06 21° SSW visible
26 Jan ? 09:37:25 10° NW 09:38:59 11° WNW 09:40:35 10° W visible
26 Jan ? 19:08:21 10° SSE 19:09:56 21° SSE 19:09:56 21° SSE visible
27 Jan ? 09:01:32 10° NNW 09:05:38 24° WNW 09:09:45 10° WSW visible
27 Jan ? 18:35:12 10° SE 18:35:45 13° SE 18:35:45 13° SE visible
27 Jan ? 20:15:11 10° SW 20:16:10 14° SW 20:16:10 14° SW visible
28 Jan ? 08:27:05 10° N 08:32:05 50° WNW 08:37:10 10° SSW visible
28 Jan ? 19:40:14 10° S 19:42:00 21° SSW 19:42:00 21° SSW visible
29 Jan ? 09:35:05 10° NW 09:36:57 12° WNW 09:38:50 10° W visible
29 Jan ? 19:06:17 10° SSE 19:07:49 21° SSE 19:07:49 21° SSE visible
30 Jan ? 08:59:24 10° NNW 09:03:35 25° WNW 09:07:48 10° WSW visible
30 Jan ? 18:33:09 10° SE 18:33:39 13° SE 18:33:39 13° SE visible
30 Jan ? 20:13:00 10° SW 20:14:04 15° SW 20:14:04 15° SW visible
